Regional Weather Roundup
Issued by NWS

Home | Current Version | Previous Version | Graphics & Text | Print | Product List | Glossary On
Versions: 1 2 3 4 5 6 7 8 9 10 11 12 13 14 15 16 17 18 19 20 21 22 23 24 25 26 27 28 29 30 31 32 33 34 35 36 37 38 39 40 41 42 43 44 45 46 47 48 49 50
754
ASUS43 KFSD 250510
RWRSD

WEATHER ROUNDUP FOR SOUTH DAKOTA
NATIONAL WEATHER SERVICE SIOUX FALLS SD
1200 AM CDT TUE APR 25 2017

NOTE: "FAIR" INDICATES FEW OR NO CLOUDS BELOW 12,000 FEET WITH NO
SIGNIFICANT WEATHER AND/OR OBSTRUCTIONS TO VISIBILITY.


SDZ001>005-009-010-012>017-250600-
NORTHWEST AND NORTH CENTRAL SOUTH DAKOTA

CITY           SKY/WX    TMP DP  RH WIND       PRES   REMARKS
BUFFALO          N/A     37  33  85 NE16      29.61S
FAITH            N/A     37  34  89 N17       29.66S
MOBRIDGE       CLOUDY    37  29  72 N15       29.66F
$$

SDZ012>016-024>037-041>051-057-063-072>074-250600-
SOUTHWEST AND SOUTH CENTRAL SOUTH DAKOTA

CITY           SKY/WX    TMP DP  RH WIND       PRES   REMARKS
RAPID CTY ARPT CLOUDY    41  35  79 NE12      29.63R
PIERRE         CLOUDY    38  33  82 N10       29.66R
CUSTER         CLOUDY    39  37  92 E13G21    29.60F
ELLSWORTH AFB  CLOUDY    41  37  87 NE13      29.63
PHILIP         MOCLDY    39  35  86 NE15      29.65F
PINE RIDGE     CLOUDY    49  41  74 E13       29.59F
SPEARFISH      LGT RAIN  39  39 100 E16       29.63S
WINNER         FAIR      39  36  89 N7        29.64S
$$

SDZ004>011-016>023-039-040-250600-
NORTHEAST SOUTH DAKOTA

CITY           SKY/WX    TMP DP  RH WIND       PRES   REMARKS
ABERDEEN       CLOUDY    36  31  82 N15       29.66S
WATERTOWN      CLOUDY    39  36  89 N16       29.58F
BROOKINGS      CLOUDY    40  37  89 N16       29.58R
SISSETON         N/A     37  36  96 N20       29.60S
$$

SDZ017-020-022-023-036>040-048>070-250600-
SOUTHEAST SOUTH DAKOTA

CITY           SKY/WX    TMP DP  RH WIND       PRES   REMARKS
SIOUX FALLS    CLOUDY    46  40  79 NW15      29.57R
HURON          CLOUDY    41  36  82 N16       29.62F
CHAMBERLAIN    PTCLDY    42  38  86 NW7       29.64R
MITCHELL       CLOUDY    43  37  79 N10       29.62S
YANKTON        PTCLDY    48  37  66 NW16      29.58S
$$

ABBREVIATIONS USED IN REMARKS
   TC - TEMPERATURE IN CELSIUS
  WCI - WIND CHILL INDEX
   HX - HEAT INDEX
  VSB - VISIBILITY





USA.gov is the U.S. government's official web portal to all federal, state and local government web resources and services.